Погода в Гызыларбате

Погода в Гызыларбате : погода сейчас, прогноз погоды и архив. Всё, что Вы хотите узнать о погоде в Гызыларбате!

Хотите узнать прогноз погоды в Гызыларбате? Тогда Вам сюда: Погода в Гызыларбате

Поиск расширенной информации на нашем сайте:

Другие новости

Новости СМИ2

Главная страница сайта

Новости сайта

03.07.2017

Напоминаем, что на нашем специализированном сайте Метеоцентр.Азия вы можете получить высокодетализированные автоматические прогнозы погоды по пунктам России, СНГ и мира в авиационном формате (включающие направление и скорость ветра, видимость, явления погоды, количество и форму облачности, нижнюю и верхнюю границу облачности).

Рекомендуем: Хохлома - хохломские узоры в векторе.

Погода в Гызыларбате - сегодня

Время (UTC), дата Ветер
(°,м/с) 
Видим.   Явления Облачность Т
(°С)
Тd
(°С)
f(%) Тe
(°С)
Pmin
(гПа)
dP
(гПа)
Po
(мм)
O2
(г/м3)
Тmin Tmax R s Состояние
почвы
18 14.08.18 230 (ЮЗ) 10 км    ясно 
+31.7 +19.2 48 +49  1009.7  1.3  750  266    +36.9       
21 14.08.18 230 (ЮЗ) 10 км    ясно 
+28.2 +19.5 59 +46  1010.3  0.4  750  269           
00 15.08.18 230 (ЮЗ) 10 км    ясно 
+27 +19.3 63 +44  1010.2  -0.1  750  271           
03 15.08.18 240 (ЮЗ) 20000 м    3/0 средняя 
[Ac trans]
+26.2 +19.6 67 +44  1011.8  1.5  752  272           
06 15.08.18 240 (ЮЗ) 20000 м    ясно 
+30.2 +18.1 48 +45  1012.5  0.9  752  269  +26.1         
09 15.08.18 260 (З) 20000 м    3/1 600 м средняя 
[Cu hum|Ac trans]
+34.4 +18.1 38 +49  1011.6  -0.8  752  265           
12 15.08.18 290 (З) 20000 м    3/3 600 м средняя 
[Cu hum|Ac trans]
+36.6 +16.7 31 +48  1009.1  -2.4  750  263           
15 15.08.18 300 (СЗ) 20000 м    1/1 600 м 
[Cu med, cong]
+35.4 +15.9 31 +46  1009.4  0.2  750  264    +37.5       
18 15.08.18 250 (З) 10 км    ясно 
+30.8 +20.6 55 +51  1010.4  0.9  751  267    +37.5       
21 15.08.18 230 (ЮЗ) 10 км    ясно 
+28.6 +19.2 57 +45  1011.4  0.9  751  270           
00 16.08.18 240 (ЮЗ) 10 км    3/3 600 м 
[Cu med, cong]
+27.9 +17.8 54 +42  1011.9  0.5  752  271           
03 16.08.18 230 (ЮЗ) 20000 м    3/3 600 м 
[Cu med, cong]
+26.6 +20.4 69 +46  1013.3  1.3  753  271           
06 16.08.18 240 (ЮЗ) 20000 м    3/1 600 м средняя 
[Cu med, cong|Ac trans]
+30.8 +18.4 48 +46  1013.3  0.2  753  268  +26.5         
09 16.08.18 250 (З) 20000 м    3/3 600 м 
[Cu hum]
+34.4 +18.5 39 +50  1012.1  -1.1  752  265           
12 16.08.18 250 (З) 20000 м    3/3 600 м 
[Cu hum]
+36.1 +18.3 35 +51  1010.1  -1.9  751  263           
15 16.08.18 070 (В) 20000 м    1/1 600 м 
[Cu med, cong]
+35.4 +18.5 37 +51  1009.5  -0.7  750  263    +37       
18 16.08.18 290 (З) 10 км    ясно 
+32 +17.7 43 +46  1010.4  0.8  751  267    +37       
21 16.08.18 280 (З) 10 км    ясно 
+29.4 +19.8 56 +48  1010.4  -0.1  751  268           
00 17.08.18 200 (Ю) 10 км    ясно 
+28.2 +20.3 62 +48  1010.3  -0.1  750  269           
03 17.08.18 260 (З) 20000 м    ясно 
+28.1 +20 61 +47  1010.3  750  269           
06 17.08.18 290 (З) 20000 м    ясно 
+31.8 +19.3 48 +49  1009.7  -0.4  750  266  +27.5         
09 17.08.18 340 (С) 20000 м    3/1 600 м средняя 
[Cu med, cong|Ac trans]
+34.6 +18.6 39 +50  1008.3  -1.4  749  264           
12 17.08.18 350 (С) 20000 м    4/4 600 м 
[Cu med, cong]
+36.5 +18.8 36 +53  1006.2  -2  748  261           
15 17.08.18 330 (СЗ) 20000 м    4/4 600 м 
[Cu med, cong]
+36 +18.1 35 +51  1005.1  -1.1  747  262    +37.4       
18 17.08.18 330 (СЗ) 10 км    1/0 средняя 
[Ac trans]
+32.8 +19.5 46 +50  1005.1  -0.1  747  264    +37.4       
Время (UTC), дата Ветер
(°,м/с) 
Видим.   Явления Облачность Т
(°С)
Тd
(°С)
f(%) Тe
(°С)
Pmin
(гПа)
dP
(гПа)
Po
(мм)
O2
(г/м3)
Тmin Tmax R s Состояние
почвы

Для получения пояснительной информации подведите курсор к названию столбца.

ПОГОДА в Гызыларбате - архив

Всё, что Вы хотите узнать о погоде в Гызыларбате - удобно и подробно!

Выберите нужную дату (начиная с 1 января 2015* года) и нажмите кнопку "Найти".
Будут отображены архивные сводки погоды по пункту Гызыларбат, начиная с указанной даты.


Отображать данные в формате CSV (для использования в таблицах Excel)


Внимание! Наш архив погоды предназначен исключительно для личного некоммерческого использования в познавательных целях. Если Вам необходимы официальные справки о состоянии погоды (для производственных, юридических, коммерческих и т.п. целей), обращайтесь в органы Росгидромета.

*Примечание: данная дата относится к архиву по метеостанциям СССР (Россия, СНГ, Балтия).
Архив по метеостанциям Зарубежной Европы и Азии (кроме Китая) хранится 10 дней, по другим регионам земного шара (Китай, Африка, Америка, Австралия, Океания) - 1 день.

Гызыларбат - район местоположения метеостанции


Название, широта, долгота, высота метеостанции:
Гызыларбат 39°ш. 56.3°д. 92 м над ур. моря [Туркменистан]

Дополнительная информация

В oтличие oт бoльшинства пoгoдных сайтoв мы публикуем пoдрoбную метеoинфoрмацию в детальнoм прoфессиoнальнoм фoрмате.

Характеристики температуры и влажнoсти вoздуха измеряются на высoте 2 м в тени вдали oт зданий и деревьев.
Скoрoсть ветра измеряется на высoте 10 м (на урoвне рoста челoвека скoрoсть ветра ниже в 1.5-2 раза). Если метеoстанция нахoдится в гoрoде или в лесу, тo скoрoсть ветра занижена на 2-4 м/с пo сравнению с oткрытым местoм. Скoрoсть ветра над акватoриями крупных рек и oзёр, а также на вершинах хoлмoв на 2-5 м/с выше, чем в oбычных услoвиях.
Атмoсфернoе давление в разных тoчках местнoсти мoжет значительнo oтличаться oт давления на метеoстанции, в зависимoсти oт услoвий рельефа (при пoдъёме на 10 м давление пoнижается примернo на 1 мм рт.ст.).